Location: Archemont
(49.1579°N, 1.7598°E)
Time: 14:44:15
(UTC+00:00)

Meteor 1-11 - Pass Details

Date: 03 February 2023
Orbit: 839 x 888 km, 81.2° (Epoch: 29 March)

Event Time Altitude Azimuth Distance (km) Brightness Sun altitude
Rises 17:46:19 0° 172° (S) 3,482 7.5 -9.1°
Reaches altitude 10° 17:48:49 10° 168° (SSE) 2,546 6.7 -9.5°
Maximum altitude 17:54:24 50° 94° (E) 1,118 4.5 -10.4°
Drops below altitude 10° 17:59:58 10° 21° (NNE) 2,548 6.4 -11.3°
Sets 18:02:28 0° 16° (NNE) 3,485 7.1 -11.7°
